Location: Fosse-Bellay
(47.1819°N, 0.1659°W)
Time: 12:59:50
(UTC+00:00)

Daily predictions for brighter satellites

Satellite Brightness Start Highest point End
(mag) Time Altitude Azimuth Time Altitude Azimuth Time Altitude Azimuth
Cosmos 1953 Rocket 4.5 20:10:41 10° SSW 20:15:05 55° WNW 20:19:31 10° N
Cosmos 2279 Rocket 4.3 20:16:05 10° NNW 20:22:17 75° W 20:28:26 10° S
ISS -3.5 20:21:43 10° WNW 20:25:06 67° NNE 20:28:28 10° ESE
Cosmos 1076 Rocket 3.7 20:22:25 10° S 20:26:38 53° E 20:30:55 10° NNE
ERS-2 2.0 20:23:54 10° NNE 20:27:33 76° ESE 20:31:11 10° S
Cosmos 1782 4.4 20:30:19 10° NNE 20:33:23 21° ENE 20:36:11 11° ESE
Landsat 7 3.8 20:28:45 10° SSE 20:33:30 79° ENE 20:38:16 10° NNW
Resurs 1-3 4.4 20:30:28 10° S 20:34:45 52° W 20:39:03 10° NNW
Cosmos 1842 Rocket 4.0 20:30:47 10° NNW 20:35:15 68° W 20:39:42 10° S
Cosmos 1538 Rocket 4.1 20:31:49 10° S 20:36:52 53° ESE 20:41:54 10° NNE
SL-16 R/B 3.1 20:31:49 10° NNW 20:37:03 36° NE 20:42:00 11° ESE
ERBS 4.0 20:37:40 10° WNW 20:40:20 24° SW 20:42:59 10° S
Cosmos 2098 Rocket 2.2 20:39:40 10° S 20:42:42 75° E 20:46:16 10° NNE
Cosmos 1271 Rocket 3.6 20:43:27 10° N 20:47:10 36° ENE 20:50:02 15° SE
GP-B 3.8 20:47:07 10° NNE 20:51:15 36° E 20:54:30 15° SSE
CZ-2C R/B 3.8 20:47:07 10° NNE 20:51:35 52° E 20:55:57 10° S
Nadezhda 4 Rocket 4.0 20:46:35 10° S 20:52:44 87° E 20:59:01 10° N
GRACE-FO 1 4.5 20:49:39 10° N 20:53:17 75° E 20:56:51 10° S
GRACE-FO 2 4.5 20:50:07 10° N 20:53:44 76° E 20:57:17 10° S
Cosmos 1697 Rocket 4.3 20:50:11 10° NW 20:55:06 31° WSW 21:00:00 10° SSW
Ariane Rocket 4.2 20:50:53 10° S 20:55:40 41° W 21:00:29 10° NNW
ATLAS 5 CENTAUR R/B 4.4 20:56:58 10° NNW 21:00:05 16° NNE 21:03:30 10° ENE
Cosmos 304 Rocket 3.8 20:56:39 10° NNW 21:01:28 68° ENE 21:05:02 18° SSE
SPOT 1/Viking Rocket 3.7 21:02:28 11° S 21:07:30 78° WSW 21:12:45 10° NNW
Cosmos 2082 Rocket 2.9 21:04:44 10° SW 21:10:16 57° WNW 21:15:52 10° NNE
USA 245 3.8 21:06:56 13° SSE 21:11:42 84° WSW 21:16:01 10° NNW
Cosmos 2278 4.3 21:07:14 10° NW 21:12:43 52° WSW 21:17:44 12° S
Cosmos 1428 Rocket 4.5 21:09:25 10° S 21:15:29 65° E 21:21:32 10° NNE
Resurs 01 Rocket 3.1 21:13:43 10° SSW 21:17:44 34° W 21:21:48 10° NNW
BREEZE-M DEB (TANK) 2.8 21:14:41 10° WNW 21:17:47 59° SSW 21:23:01 18° SE
BREEZE-M DEB (TANK) 4.0 21:15:34 10° WNW 21:19:06 60° SSW 21:26:50 17° SE
Cosmos 2360 Rocket 3.1 21:16:40 10° NNW 21:21:53 37° NE 21:25:36 17° ESE
Cosmos 923 Rocket 4.1 21:18:04 10° S 21:23:18 60° ESE 21:28:34 10° NNE
Meteor 1-26 Rocket 4.3 21:20:07 10° NNW 21:26:08 89° WSW 21:30:33 18° S
Cosmos 1553 Rocket 4.2 21:20:48 10° N 21:26:44 52° ENE 21:30:29 22° SE
Cosmos 371 Rocket 4.3 21:23:04 10° NW 21:27:34 40° WSW 21:31:30 13° S
Cosmos 2333 Rocket 3.8 21:24:07 10° N 21:28:39 24° NE 21:32:47 12° E
ATLAS 2AS CENTAUR R/B 4.0 21:21:38 10° WSW 21:29:15 49° NW 21:36:40 10° NE
RESURS DK-1 4.4 21:26:23 10° WSW 21:30:06 31° NW 21:33:50 10° NNE
CARTOSAT-1 3.8 21:29:56 19° S 21:32:55 66° WSW 21:37:14 10° NNW
USA 276 2.0 21:30:59 10° WNW 21:34:09 80° SSW 21:35:06 41° ESE
Cosmos 2151 3.8 21:30:24 10° SSW 21:34:31 49° WNW 21:38:42 10° N
Cosmos 2056 Rocket 4.0 21:29:30 10° NNW 21:34:43 48° ENE 21:37:36 24° SE
Cosmos 1812 3.2 21:32:12 10° N 21:35:56 46° ENE 21:37:16 32° SE
ATLAS 3B R/B 3.5 21:30:15 10° NW 21:37:00 47° WSW 21:42:22 17° S
USA 267 3.7 21:32:34 10° ENE 21:38:32 36° SE 21:44:27 10° SSW
Cosmos 1933 4.2 21:36:15 10° NNW 21:40:08 45° W 21:42:58 17° SSW
Cosmos 1980 Rocket 3.9 21:38:23 10° NW 21:42:52 25° WSW 21:47:21 10° SSW
Cosmos 2084 3.9 21:42:47 33° SE 21:42:59 33° ESE 21:46:43 10° ENE
ERS-1 Rocket 3.0 21:40:38 23° S 21:43:47 80° WSW 21:48:50 10° NNW
SPOT 5 2.6 21:41:38 26° S 21:43:59 77° WSW 21:48:24 10° NNW
ARIANE 5 R/B 3.0 21:41:12 22° S 21:44:00 62° WSW 21:48:26 10° NNW
SL-27 R/B 3.7 21:44:33 26° E 21:44:33 26° E 21:47:20 10° NE
NOSS 2-1 (C) 4.2 21:46:53 24° E 21:46:53 24° E 21:48:42 10° ENE
Terra 1.8 21:43:31 29° SSE 21:45:59 80° ENE 21:50:46 10° NNW
Cosmos 1515 Rocket 4.1 21:43:58 10° N 21:48:14 43° ENE 21:49:44 31° ESE
NOSS 2-1 (D) 3.9 21:54:21 30° E 21:54:21 30° E 21:56:30 10° NE
Cosmos 2322 Rocket 2.1 21:47:55 10° NNW 21:53:36 87° WSW 21:56:28 30° SSE
Spot 2 Rocket 4.4 21:52:07 17° SSW 21:55:47 45° W 22:00:42 10° NNW
Cosmos 1371 Rocket 4.0 21:50:46 10° NNW 21:56:11 78° ENE 21:58:42 32° SSE
S3M 4.2 21:50:07 10° N 21:56:26 60° ENE 21:59:44 29° SSE
Cosmos 2112 Rocket 3.9 21:54:10 19° SSW 21:57:59 76° ESE 22:03:15 10° NNE
Cosmos 1680 Rocket 3.4 21:54:17 14° SSW 21:58:48 88° ESE 22:04:06 10° NNE
Gbstr 26 Del rocket 2.9 21:55:47 10° WNW 21:59:29 58° SSW 22:00:26 44° SSE
H-2A R/B 3.7 21:55:28 10° NNE 21:59:35 52° E 22:00:38 41° SSE
Cosmos 1766 Rocket 3.7 21:57:59 24° SSW 22:00:37 75° W 22:05:01 10° N
Cosmos 1809 Rocket 4.4 21:56:27 19° S 22:01:06 89° WNW 22:07:16 10° N
ISS -2.3 21:58:50 10° W 22:01:36 26° SW 22:01:36 26° SW
Cosmos 1862 3.2 22:02:44 44° SSE 22:03:52 71° E 22:07:51 10° NNE
Cosmos 1151 Rocket 3.6 22:01:32 10° NNW 22:05:47 54° W 22:07:50 28° SSW
COSMOS 2455 3.8 22:05:54 26° ESE 22:06:29 27° ESE 22:11:24 10° NE
Cosmos 1328 Rocket 3.7 22:02:39 10° NNW 22:07:06 69° W 22:08:55 34° S
Cosmos 1782 4.1 22:06:07 10° NNW 22:09:48 35° W 22:11:47 22° SW
USA 234 3.7 22:07:27 13° E 22:13:18 58° NNE 22:19:43 10° NW
ALOS 2 4.4 22:13:01 17° E 22:14:25 20° ENE 22:17:34 10° NNE
Cosmos 2219 Rocket 3.1 22:11:14 10° NNW 22:16:29 39° NE 22:19:12 24° ESE
COBE Rocket 4.4 22:16:53 34° ESE 22:18:12 42° ENE 22:22:37 10° N
SL-16 R/B 3.0 22:15:56 10° NW 22:21:15 43° WSW 22:23:52 26° SSW
Cosmos 2333 4.5 22:17:26 10° NNW 22:22:59 58° ENE 22:25:16 34° ESE
Cosmos 2237 4.3 22:17:52 10° NNW 22:23:34 69° WSW 22:25:50 37° S
Meteor 2-6 Rocket 4.3 22:20:08 10° NNW 22:25:30 64° W 22:27:52 33° SSW
Meteor 2-21 Rocket 4.4 22:23:08 28° S 22:26:36 88° WNW 22:32:49 10° N
COSMOS 2428 3.6 22:21:35 10° NNW 22:26:56 39° NE 22:29:40 25° ESE
Cosmos 1805 Rocket 4.2 22:32:29 38° E 22:32:45 38° E 22:36:52 10° NNE
Cosmos 292 Rocket 3.7 22:28:54 10° NNW 22:33:41 89° ENE 22:34:52 52° SSE
Cosmos 1624 Rocket 4.4 22:31:52 10° NNW 22:36:56 54° WSW 22:38:38 38° SSW
CZ-3B R/B 2.9 22:32:37 10° WNW 22:42:47 64° NNE 22:44:25 33° E
Cosmos 1500 Rocket 3.4 22:43:11 60° S 22:43:58 87° E 22:48:26 10° N
ATLAS 5 CENTAUR R/B 3.2 22:40:57 10° NNW 22:46:02 41° NE 22:49:59 19° ESE
Meteor 1-27 Rocket 3.7 22:42:55 10° NNW 22:48:35 87° WSW 22:50:25 45° S
Cosmos 1420 Rocket 4.2 22:43:33 10° NNW 22:48:50 65° WSW 22:50:16 46° SSW
NOSS 2-1 (E) 3.3 22:51:16 56° WNW 22:51:30 58° NW 22:54:56 10° NE
NOSS 3-1 (C) 4.0 22:47:02 10° NW 22:54:31 90° WSW 22:58:46 34° SE
Cosmos 972 Rocket 4.0 22:55:32 52° SSE 22:56:44 70° ESE 23:01:46 10° NNE
Cosmos 2285 Rocket 3.9 22:56:20 10° NNW 23:02:40 81° ENE 23:04:48 44° SSE
Cosmos 1743 Rocket 3.9 23:02:37 48° SW 23:03:34 61° WNW 23:08:00 10° N
Cosmos 2360 Rocket 2.9 23:00:41 10° NW 23:05:56 41° WSW 23:07:21 35° SW
Meteor 1-20 Rocket 4.2 23:05:25 51° SSE 23:06:38 65° E 23:12:15 10° NNE
Cosmos 2315 Rocket 4.0 23:00:47 10° NNW 23:07:06 78° W 23:09:19 43° S
Cosmos 1452 Rocket 3.4 23:02:08 10° NNW 23:07:25 85° WSW 23:08:29 58° SSE
USA 229 DEB 4.0 23:00:51 10° NW 23:08:09 75° NE 23:12:08 32° SE
USA 229 4.0 23:00:57 10° NW 23:08:15 75° NE 23:12:15 31° SE
COSMOS 2487 3.2 23:13:20 47° NNE 23:13:20 47° NNE 23:15:53 10° NNE
Cosmos 2333 Rocket 2.2 23:07:51 10° NNW 23:13:31 72° WSW 23:14:46 53° S
Spot 4 3.8 23:14:03 59° SSW 23:14:47 70° WSW 23:19:37 10° NNW
Sich 1 2.9 23:14:38 78° SE 23:14:48 80° E 23:19:10 10° NNE
Cosmos 1633 Rocket 3.8 23:17:04 40° E 23:17:04 40° E 23:21:00 10° NNE
Cosmos 1666 Rocket 3.8 23:20:10 53° E 23:20:10 53° E 23:24:27 10° NNE
Cosmos 2228 Rocket 3.5 23:16:41 10° NNW 23:20:58 51° W 23:21:21 49° WSW
USA 267 3.3 23:15:21 10° NE 23:21:56 80° NNW 23:28:27 10° WSW
Cosmos 489 Rocket 4.4 23:20:58 48° S 23:22:45 72° ESE 23:29:06 10° NNE
Terra 4.2 23:22:24 11° WSW 23:24:20 13° W 23:26:37 10° WNW
Cosmos 2322 3.8 23:19:06 10° NNW 23:24:45 62° WSW 23:25:54 51° SSW
NOSS 3-1 (A) 4.0 23:21:08 10° NW 23:28:38 89° SW 23:32:41 36° SE
Meteor 1-18 Rocket 4.3 23:25:04 10° N 23:30:57 70° ENE 23:32:22 51° SE
Cosmos 2297 Rocket 3.4 23:32:09 27° ESE 23:32:16 27° ESE 23:36:57 10° NE
Cosmos 1110 Rocket 3.9 23:29:21 10° NNW 23:34:43 87° ENE 23:35:37 62° SSE
Cosmos 2322 Rocket 4.3 23:33:59 10° WNW 23:36:45 14° W 23:38:16 13° WSW
Cosmos 2237 Rocket 2.9 23:31:15 10° NNW 23:36:47 49° ENE 23:38:58 33° ESE
Okean 1 3.4 23:33:36 10° N 23:37:21 76° NNW 23:37:21 76° NNW
Meteor 1-25 Rocket 4.2 23:38:17 51° SSW 23:39:42 75° WNW 23:45:17 10° N
Cosmos 1331 Rocket 3.9 23:35:49 10° NNW 23:41:05 89° ENE 23:41:53 66° SSE
Cosmos 1862 Rocket 3.5 23:38:38 10° N 23:43:01 69° E 23:43:02 69° E
Cosmos 2227 Rocket 3.5 23:43:37 25° ESE 23:43:49 25° ESE 23:48:21 10° NE
Cosmos 1500 3.6 23:44:24 60° NE 23:44:24 60° NE 23:47:41 10° NNE
Cosmos 1745 Rocket 4.3 23:43:09 44° SE 23:44:40 54° E 23:50:46 10° NNE
ALOS 2 3.0 23:50:25 51° W 23:50:25 51° W 23:54:42 10° NNW
COSMOS 2455 3.2 23:49:00 30° WSW 23:52:00 62° NW 23:58:00 10° NNE
Cosmos 1707 Rocket 3.9 23:48:18 10° NNW 23:52:31 53° W 23:52:31 53° W
